www.pogodaiklimat.ru

Погода и климат >> Архив погоды >> Казахстан >> Аяккум


АРХИВ ПОГОДЫ в Аяккуме

Время (UTC), дата Ветер
(напр.,м/с)
 
Видим.   Явления Облачность Т
(С)
Тd
(С)
f
(%)
Тe
(С)
Тes
(С)
Комфортность P
(гПа)
Po
(гПа)
Тmin
(С)
Tmax
(С)
R
(мм)
R24
(мм)
S
(см)
03 16.08 штиль 0 50 км ясно +15.2 +7.8 61 +15 +18 1017.5 1003.8
06 16.08 СЗ 2 50 км ясно +28.2 +11.1 35 +29 +41 жарко 1016.8 1003.7 +11.0
09 16.08 СЗ 2 50 км 3/3 600 м
[Cu hum]
+30.7 +9.2 26 +30 +40 жарко 1015.6 1002.4
12 16.08 СЗ 3 50 км 4/4 1000 м
[Cu hum]
+31.6 +9.9 26 +31 +34 жарко 1014.4 1001.6
15 16.08 С 1 50 км 1/0
[Ac cuf]
+30.2 +8.9 27 +30 +30 жарко 1014.2 1001.3 +31.9
18 16.08 СВ 1 н/о ясно +23.1 +10.6 45 +25 +25 комфорт 1016.1 1002.8 +31.9
21 16.08 штиль 0 н/о ясно +19.0 +9.5 54 +20 +20 1016.6 1003.1
00 17.08 штиль 0 50 км ?/? +16.3 +9.7 65 +16 +16 1017.2 1003.7
03 17.08 штиль 0 50 км ясно +18.4 +8.1 51 +19 +22 1017.3 1003.8
06 17.08 В 1 50 км ясно +29.8 +8.5 26 +29 +43 жарко 1016.9 1003.9 +16.0
09 17.08 С 1 50 км ясно +32.0 +7.4 22 +31 +47 жарко 1016.0 1003.2
12 17.08 В 2 50 км ясно +32.5 +6.5 20 +31 +36 жарко 1015.3 1002.5
15 17.08 В 2 50 км ясно +30.8 +7.3 23 +30 +30 жарко 1015.6 1002.7 +33.6
18 17.08 СВ 1 н/о ясно +21.1 +8.6 45 +22 +22 комфорт 1017.3 1003.9 +33.6
21 17.08 штиль 0 н/о ясно +17.9 +8.0 52 +18 +18 1018.1 1004.6
00 18.08 штиль 0 н/о ясно +15.7 +8.0 60 +16 +16 1019.2 1005.6
03 18.08 штиль 0 50 км ясно +18.0 +9.7 58 +18 +21 1019.8 1006.3
06 18.08 штиль 0 50 км ясно +30.7 +9.4 27 +30 +46 жарко 1017.9 1005.0 +15.7
09 18.08 В 1 50 км ясно +32.5 +9.5 24 +32 +48 жарко 1017.8 1005.0
12 18.08 штиль 0 50 км ясно +33.6 +11.3 26 +33 +41 жарко 1017.7 1004.9
15 18.08 В 2 50 км ясно +31.6 +8.5 24 +31 +31 жарко 1017.8 1004.9 +34.5
18 18.08 штиль 0 н/о ясно +23.1 +9.7 43 +25 +25 комфорт 1020.3 1007.0 +34.5
21 18.08 штиль 0 н/о 3/0
[Ci fib]
+19.5 +7.1 45 +20 +20 1020.9 1007.5
00 19.08 штиль 0 н/о 1/0
[Ci fib]
+17.5 +8.6 56 +18 +18 1021.7 1008.2
03 19.08 штиль 0 50 км ясно +18.1 +10.3 60 +18 +21 1023.0 1009.4
06 19.08 В 2 50 км ясно +32.8 +10.9 26 +32 +44 жарко 1022.3 1009.4 +15.0
09 19.08 ЮВ 4 50 км ясно +34.6 +8.5 20 +33 +43 жарко 1021.5 1008.8
12 19.08 ЮВ 5 50 км ясно +35.0 +8.4 20 +33 +36 жарко 1021.1 1008.3
15 19.08 ЮВ 2 50 км ясно +32.9 +9.7 24 +32 +32 жарко 1021.3 1008.5 +36.5
18 19.08 штиль 0 н/о ясно +24.5 +14.6 54 +27 +27 жарко 1022.3 1009.1 +36.5
21 19.08 штиль 0 н/о ясно +20.9 +10.3 51 +22 +22 комфорт 1022.3 1008.9
00 20.08 штиль 0 н/о ясно +18.4 +9.3 55 +19 +19 1022.5 1008.9
03 20.08 штиль 0 50 км ясно +19.9 +12.0 60 +21 +24 комфорт 1022.9 1009.4
06 20.08 С 3 50 км 1/0
[Ci fib]
+34.5 +11.3 24 +34 +43 очень
жарко
1022.2 1009.3 +17.6
09 20.08 С 3 50 км 3/0
[Ci fib]
+36.6 +8.6 18 +35 +46 очень
жарко
1020.7 1008.0
12 20.08 С 1 50 км 1/1 1000 м
[Cu hum]
+37.6 +8.8 17 +36 +41 очень
жарко
1019.4 1006.7
15 20.08 С 1 50 км 4/0
[Ac trans]
+35.4 +10.5 22 +34 +34 очень
жарко
1018.8 1006.1 +38.0
18 20.08 ЮВ 1 н/о ясно +29.5 +9.0 28 +29 +29 жарко 1019.0 1006.0 +38.0
21 20.08 штиль 0 н/о ясно +25.2 +9.0 36 +26 +26 жарко 1018.9 1005.6
00 21.08 штиль 0 н/о ясно +20.2 +10.6 54 +21 +21 комфорт 1019.5 1006.1
03 21.08 штиль 0 50 км 4/0
[Ac lent]
+21.2 +11.5 54 +23 +25 комфорт 1019.5 1006.1
06 21.08 З 2 50 км ясно +32.4 +9.7 25 +32 +43 жарко 1017.2 1004.3 +20.0
09 21.08 СЗ 3 50 км 3/3 1000 м
[Cu med, cong]
+37.3 +8.5 17 +35 +43 очень
жарко
1015.2 1002.6
12 21.08 СЗ 5 50 км 3/3 1000 м
[Cu med, cong]
+38.1 +7.0 15 +36 +38 очень
жарко
1013.7 1001.1
15 21.08 СЗ 4 50 км 1/1 1000 м
[Cu med, cong]
+35.5 +10.2 21 +34 +34 очень
жарко
1012.8 1000.1 +39.5
18 21.08 штиль 0 н/о ясно +26.6 +8.9 33 +27 +27 жарко 1013.0 999.9 +39.5
21 21.08 штиль 0 н/о ясно +23.2 +7.6 37 +24 +24 комфорт 1012.7 999.5
00 22.08 штиль 0 н/о ясно +22.6 +6.1 34 +23 +23 комфорт 1013.2 999.9
03 22.08 В 2 50 км ясно +22.4 +12.2 52 +25 +27 комфорт 1014.5 1001.2
06 22.08 В 4 50 км ясно +28.7 +14.8 43 +31 +39 жарко 1014.8 1001.9 +22.1
09 22.08 В 5 50 км ясно +31.8 +14.1 34 +33 +40 жарко 1014.6 1001.8
12 22.08 СВ 3 50 км ясно +32.3 +12.0 29 +33 +37 жарко 1014.6 1001.8
18 22.08 В 5 н/о ясно +24.7 +5.5 29 +24 +24 комфорт 1017.2 1003.9 +33.0
00 23.08 штиль 0 н/о ясно +15.8 +7.6 58 +16 +16 1019.4 1005.8

 

Местоположение метеостанции Аяккум (Актюбинская область, Казахстан): широта 46.72 долгота 59.17 высота над уровнем моря 114 м.

В архиве по умолчанию представлена погода в Аяккуме за последнюю неделю. Архивные данные за месяц целиком и за предыдущие месяцы, начиная с января 2011 года, Вы можете получить, выбрав интересующий диапазон дат из раскрывающегося списка и нажав кнопку "Ввод!".


*Определитесь, кто Вы:
робот инопланетянин человек

Внимание! Время в таблицах - всемирное. Для получения местного времени необходимо прибавить поправку, которая равна 5 ч.

Смотрите также архив погоды в соседних городах и на ближайших метеорологических станциях:

Погода в Шалкаре (Актюбинская область, Казахстан) (130 км)
Погода в Аральске (Кызылординская область, Казахстан) (189 км)
Погода в Мугалжаре (Актюбинская область, Казахстан) (218 км)
Погода в Жагабулаке (Актюбинская область, Казахстан) (237 км)
Погода в Эмбе (Актюбинская область, Казахстан) (246 км)
Погода в Казалинске (Кызылординская область, Казахстан) (250 км)
Погода в Каукее (Кызылординская область, Казахстан) (259 км)
Погода в Иргизе (Актюбинская область, Казахстан) (263 км)
Погода в Саме (Мангистауская область, Казахстан) (277 км)
Погода в Каракалпакии (Каракалпакстан, Узбекистан) (303 км)

Пояснения к столбцам:

Ветер - указаны скорость ветра в м/с - средняя за 10 мин, порывы в срок и между сроками (в фигурных скобках) и направление, откуда дует ветер: С - северный, СВ - северо-восточный, В - восточный, ЮВ - юго-восточный, Ю - южный, ЮЗ - юго-западный, З - западный, СЗ - северо-западный.
Видимость - горизонтальная дальность видимости в метрах или километрах. При видимости от 1 до 10 км при отсутствии осадков обычно наблюдается дымка, при ухудшении видимости до 1 км и менее - туман. В сухую погоду видимость может ухудшаться дымом, пылью или мглою.
Явления - указаны атмосферные явления, наблюдавшиеся в срок или в последний час перед сроком; фигурными скобками обозначены явления, наблюдавшиеся между сроками (за 1-3 часа до срока); квадратными скобками обозначены град или гололедные отложения с указанием их диаметра в мм.
Облачность - указаны через наклонную черту общая и нижняя облачность в баллах и высота нижней границы облаков в метрах; квадратными скобками обозначены формы облаков: Ci - перистые, Cs - перисто-слоистые, Cc - перисто-кучевые, Ac - высококучевые, As - высокослоистые, Sc - слоисто-кучевые, Ns - слоисто-дождевые, Cu - кучевые, Cb - кучево-дождевые. Подробнее классификацию облаков см. в Атласе облаков (PDF).
T - Температура воздуха - температура, измеренная на высоте 2 м над землей.
Td - Температура точки росы - температура, при понижении до которой содержащийся в воздухе водяной пар достигнет насыщения.
f - Относительная влажность воздуха - влажноcть воздуха, измеренная на высоте 2 м над землей.
Te - Эффективная температура - температура, которую ощущает одетый по сезону человек в тени. Характеристика душности погоды. При расчете учитывается влияние влажности воздуха и скорости ветра на теплоощущения человека.
Tes - Эффективная температура на солнце - температура, которую ощущает человек, с поправкой на солнечный нагрев. Характеристика знойности погоды. Зависит от высоты солнца над горизонтом, облачности и скорости ветра. Ночью, в пасмурную погоду, а также при ветре 12 м/с и более поправка равна нулю.
P - Атмосферное давление - приведенное к уровню моря атмосферное давление.
Po - Атмосферное давление - измеренное на уровне метеостанции атмосферное давление.
Tmin - Минимальная температура - минимум температуры воздуха на высоте 2 м над землей.
Tmax - Максимальная температура - максимум температуры воздуха на высоте 2 м над землей.
R - Количество осадков - Количество выпавших осадков за период времени, мм. При наведении курсора мыши на число - период времени, за который выпало указанное количество осадков.
R24 - Количество осадков - Количество выпавших осадков за 24 часа, мм.
S - Снежный покров - Высота снежного покрова, см. При наведении курсора мыши на число - состояние снежного покрова и степень покрытия местности в баллах.